Regional Weather Roundup
Issued by NWS Cleveland, OH

Current Version | Previous Version | Text Only | Print | Product List | Glossary On
Versions: 1 2 3 4 5 6 7 8 9 10 11 12 13 14 15 16 17 18 19 20 21 22 23 24 25 26 27 28 29 30 31 32 33 34 35 36 37 38 39 40 41 42 43 44 45 46 47 48 49 50
000
ASUS41 KCLE 041910
RWRCLE
OHIO REGIONAL WEATHER ROUNDUP
NATIONAL WEATHER SERVICE CLEVELAND, OH
300 PM EDT SAT JUL 04 2015

NOTE: "FAIR" INDICATES FEW OR NO CLOUDS BELOW 12,000 FEET WITH NO
SIGNIFICANT WEATHER AND/OR OBSTRUCTIONS TO VISIBILITY.

OHZ001>008-015>018-024>027-034-035-043-044-042000-
   NORTHWEST OHIO

CITY           SKY/WX    TMP DP  RH WIND       PRES   REMARKS
DEFIANCE       MOSUNNY   79  55  43 W7        30.01F
FINDLAY        MOSUNNY   77  56  48 VRB6      30.01S
TOLEDO EXPRESS SUNNY     78  52  40 W7        30.00S
TOLEDO EXEC    SUNNY     77  52  41 VRB5      30.01S
LIMA           MOSUNNY   75  55  49 N3        30.02S
$$

OHZ009>014-019>023-028>033-038-089-042000-
   NORTHEAST OHIO

CITY           SKY/WX    TMP DP  RH WIND       PRES   REMARKS
CLE-HOPKINS    SUNNY     75  51  43 N7        30.03R
CLE-LAKEFRONT  SUNNY     73  52  47 N7        30.01R
CUY CO. ARPT   SUNNY     75  52  43 N7        30.02S
LORAIN-ELYRIA  SUNNY     74  55  51 N7        30.02R
ASHTABULA      SUNNY     73  51  46 N8        30.01S
AKRON-CANTON   PTSUNNY   79  54  41 W9        30.00S
WOOSTER        SUNNY     75  55  49 CALM      30.02R
MANSFIELD      SUNNY     76  53  44 W6        30.03S
YOUNGSTOWN     MOSUNNY   76  51  41 W9        30.00R
$$

OHZ042-051>053-060>062-070>072-077>081-042000-
  SOUTHWEST OHIO

CITY           SKY/WX    TMP DP  RH WIND       PRES   REMARKS
CINC-COVINGTON MOSUNNY   78  62  57 N7        30.02S
CINC-LUNKEN    PTSUNNY   79  60  52 VRB5      30.00F
HAMILTON       MOSUNNY   80  61  52 NW3       30.02F
DAYTON         MOSUNNY   79  59  50 VRB3      30.03F
WRIGHT-PAT AFB SUNNY     77  55  45 VRB3      30.01F
DAYTON GENERAL SUNNY     78  53  41 NW7       30.01F
WILMINGTON     SUNNY     78  55  44 MISG      30.02S
$$

OHZ036-037-039>041-045>050-054>059-063>069-073>076-082>088-042000-
  CENTRAL AND SOUTHEAST OHIO

CITY           SKY/WX    TMP DP  RH WIND       PRES   REMARKS
COLUMBUS       MOSUNNY   77  55  46 CALM      30.00S
OSU AIRPORT    SUNNY     77  51  40 NW5       30.01F
BOLTON FIELD   SUNNY     75  55  50 NW7       30.01F
RICKENBACK AFB SUNNY     77  55  46 W7        30.00S
NEWARK         SUNNY     80  57  45 VRB7      29.99F
MARION         SUNNY     76  55  48 NE6       30.02F
LANCASTER      SUNNY     78  57  48 VRB3      30.00F
ZANESVILLE     NOT AVBL
NEW PHILLY     SUNNY     78  59  51 NW7       30.00R
$$


USA.gov is the U.S. government's official web portal to all federal, state and local government web resources and services.